[[{"header":{"parameterUnit":"m.s-1","parameterCategory":1,"la1":30.2991,"la2":30.254,"lo1":-89.0895,"lo2":-89.0444,"dy":0.0017,"dx":0.0017,"nx":28,"ny":28,"refTime":"2023-07-26T09:00:00:Z","depth":0,"parameterNumber":2,"parameterNumberName":"U-component_of_WINDS"},"data":[0,0,0,0,0,0,0,0,0,0,0,0,0,0,0,0,0,0,0,0,0,0,0,0,0,0,0,0,0,0,0,0,0,0,0,0,0,0,0,0,0,0,0,0,0,0,0,0,0,0,0,0,0,0,0,0,0,0,0.7637,0.7637,0,0.7728,0.7729,0.773,0.7775,0.7775,0.7775,0.7775,0.7864,0.7867,0.7869,0,0,0,0,0,0,0,0,0,0,0,0,0,0.7497,0.7499,0.7636,0.7638,0.7639,0.7727,0.7729,0.773,0.7775,0.7775,0.7775,0.7775,0.7864,0.7866,0.7869,0,0,0,0,0,0,0,0,0,0,0,0,0,0.7569,0.75,0.7636,0.7672,0.7676,0.7727,0.7729,0.773,0.7775,0.7775,0.7775,0.7775,0.7863,0.7866,0.787,0.789,0,0,0.788,0.7882,0,0,0,0,0,0,0,0,0.7565,0.7574,0.7666,0.767,0.7674,0.774,0.7712,0.7784,0.7775,0.7737,0.7775,0.7775,0.7823,0.783,0.7846,0.7895,0.7898,0.7881,0.7883,0.7884,0.7885,0,0,0,0,0,0,0,0.756,0.7571,0.7672,0.7667,0.7672,0.7682,0.7692,0.7726,0.7779,0.7741,0.7744,0.7755,0.7825,0.7843,0.7849,0.79,0.7881,0.7884,0.7886,0.7887,0.7968,0.7968,0,0,0,0,0,0,0.755,0.7566,0.7669,0.7675,0.7619,0.7684,0.7696,0.7719,0.7778,0.7788,0.7755,0.7756,0.7837,0.7845,0.7852,0.788,0.7884,0.7888,0.789,0.7968,0.7968,0.7968,0,0,0,0,0,0,0.7547,0.7559,0.7666,0.7622,0.7636,0.7687,0.7712,0.7721,0.7739,0.7789,0.7798,0.7763,0.7837,0.7847,0.7881,0.7884,0.7889,0.7892,0.7968,0.7968,0.7968,0.7936,0,0,0,0,0,0,0.7542,0.7557,0.7567,0.7622,0.7638,0.7694,0.7712,0.7722,0.7745,0.7749,0.78,0.7808,0.7838,0.7875,0.7884,0.7889,0.7895,0.7968,0.7968,0.7968,0.7937,0.7935,0.7934,0,0,0,0,0,0.7537,0.7554,0.7567,0.7579,0.7652,0.7694,0.7704,0.7739,0.7745,0.7755,0.7787,0.7806,0.7882,0.7878,0.7889,0.7894,0.7968,0.7968,0.7968,0.7938,0.7936,0.7934,0,0,0,0,0,0,0.7497,0.7561,0.7577,0.7612,0.7648,0.7702,0.7715,0.7735,0.7769,0.777,0.7811,0.7822,0.7852,0.7876,0.7871,0.7917,0.7927,0.7929,0.79,0.7898,0.7896,0.789,0.7898,0,0,0,0,0,0.7492,0.7523,0.7577,0.7602,0.7619,0.7664,0.7684,0.7708,0.7746,0.7761,0.7795,0.783,0.7861,0.7881,0.7913,0.7941,0.7952,0.795,0.7948,0.7946,0.7947,0.7963,0.7963,0.7969,0.7969,0.7969,0,0,0.7482,0.7521,0.7538,0.7595,0.7626,0.7655,0.7676,0.7707,0.7728,0.7765,0.7799,0.7825,0.7866,0.7897,0.7912,0.7918,0.7948,0.7946,0.7944,0.7947,0.7963,0.7962,0.7962,0.7969,0.7969,0.7969,0,0,0.748,0.7513,0.7537,0.7567,0.7613,0.7643,0.7648,0.77,0.7719,0.7754,0.7782,0.7807,0.7861,0.7889,0.791,0.7917,0.7936,0.7925,0.7916,0.793,0.793,0.793,0.7931,0.7932,0.7927,0.7927,0.7927,0,0.7461,0.7509,0.7547,0.7576,0.7599,0.7635,0.7659,0.7686,0.7739,0.7753,0.776,0.7827,0.7858,0.7895,0.7896,0.7913,0.7919,0.792,0.7927,0.7927,0.7928,0.793,0.793,0.7925,0.7925,0.7925,0.7926,0,0.7483,0.7515,0.7529,0.7581,0.7606,0.7632,0.7673,0.7694,0.7715,0.7743,0.7777,0.7815,0.7854,0.7865,0.7886,0.7905,0.7907,0.792,0.793,0.7925,0.7927,0.7929,0.7923,0.7923,0.7924,0.7924,0,0,0.7459,0.7531,0.7536,0.7559,0.7612,0.7637,0.7663,0.7704,0.772,0.7755,0.7777,0.7821,0.7833,0.7857,0.7881,0.7894,0.7896,0.7905,0.7907,0.7902,0.7918,0.7908,0.7909,0.7909,0.7909,0.7909,0.7915,0,0.7463,0.7515,0.755,0.7588,0.7617,0.765,0.7673,0.7707,0.7734,0.7761,0.7789,0.782,0.7834,0.7848,0.7862,0.7893,0.79,0.7893,0.7929,0.793,0.7918,0.791,0.79,0.7904,0.7916,0.7916,0.7916,0,0.7476,0.7512,0.7552,0.7601,0.7615,0.7635,0.7674,0.77,0.7738,0.7757,0.7783,0.7807,0.7835,0.7843,0.7881,0.7876,0.7892,0.7909,0.791,0.7915,0.7923,0.7915,0.7906,0.7906,0.7918,0.7918,0.7918,0,0.7454,0.7511,0.7543,0.7562,0.762,0.7633,0.7658,0.7696,0.7718,0.7751,0.7765,0.78,0.7819,0.7845,0.7878,0.7881,0.7913,0.7923,0.7927,0.7926,0.7933,0.7932,0.7926,0.7943,0.7943,0.7943,0.7943,0,0.7455,0.7479,0.7534,0.7553,0.758,0.7619,0.7643,0.767,0.7704,0.7728,0.7758,0.7779,0.7821,0.7847,0.7872,0.79,0.7908,0.7922,0.7929,0.792,0.7918,0.7931,0.7932,0.7944,0.7944,0.7943,0.7943,0,0.7435,0.7473,0.751,0.7561,0.7575,0.7592,0.7636,0.7655,0.7683,0.7712,0.7721,0.7764,0.7797,0.7832,0.7875,0.7892,0.7918,0.7927,0.7905,0.7909,0.7911,0.791,0.7913,0.7915,0.7931,0.7931,0.7931,0,0.7434,0.7453,0.7507,0.7526,0.755,0.758,0.7602,0.764,0.7661,0.7706,0.7719,0.7754,0.7784,0.7833,0.7867,0.79,0.791,0.7909,0.7915,0.7905,0.7909,0.7908,0.7909,0.7907,0.7906,0.7906,0.7906,0,0.7428,0.7445,0.7477,0.7515,0.7541,0.7572,0.7605,0.7618,0.7662,0.7684,0.7718,0.7741,0.7785,0.7819,0.7856,0.7879,0.7899,0.7904,0.7906,0.7897,0.7884,0.7891,0.79,0.7903,0.7904,0.7904,0.7904,0.7904,0.7417,0.7435,0.7476,0.751,0.7538,0.7567,0.7588,0.7618,0.7648,0.7688,0.7708,0.7741,0.7777,0.7829,0.7852,0.7877,0.7883,0.7887,0.7888,0.7889,0.7886,0.788,0.7884,0.7884,0.7884,0.7884,0.7884,0,0.7412,0.744,0.7471,0.7515,0.7541,0.756,0.7596,0.7616,0.7645,0.7678,0.7707,0.7745,0.7777,0.7813,0.7847,0.786,0.787,0.7868,0.7867,0.7872,0.7879,0.7873,0.7859,0.7859,0.7859,0.7859,0.7859,0.7859,0.7413,0.7444,0.7466,0.7511,0.7538,0.7573,0.7592,0.7618,0.7644,0.7686,0.7713,0.7737,0.7771,0.7807,0.7837,0.7846,0.7857,0.7852,0.7864,0.787,0.7872,0.7874,0.7868,0.7854,0.7854,0.7856,0.7856,0.7855]},{"header":{"parameterUnit":"m.s-1","parameterCategory":1,"la1":30.2991,"la2":30.254,"lo1":-89.0895,"lo2":-89.0444,"dy":0.0017,"dx":0.0017,"nx":28,"ny":28,"refTime":"2023-07-26T09:00:00:Z","depth":0,"parameterNumber":3,"parameterNumberName":"V-component_of_WINDS"},"data":[0,0,0,0,0,0,0,0,0,0,0,0,0,0,0,0,0,0,0,0,0,0,0,0,0,0,0,0,0,0,0,0,0,0,0,0,0,0,0,0,0,0,0,0,0,0,0,0,0,0,0,0,0,0,0,0,0,0,3.1603,3.1602,0,3.1534,3.1533,3.1532,3.1501,3.1501,3.1501,3.1501,3.1423,3.1421,3.1419,0,0,0,0,0,0,0,0,0,0,0,0,0,3.1702,3.17,3.1603,3.1602,3.1601,3.1534,3.1533,3.1532,3.1501,3.1501,3.1501,3.1501,3.1424,3.1422,3.1419,0,0,0,0,0,0,0,0,0,0,0,0,0,3.1648,3.17,3.1603,3.1578,3.1575,3.1534,3.1533,3.1532,3.1501,3.1501,3.1501,3.1501,3.1425,3.1422,3.1419,3.1396,0,0,3.1409,3.1407,0,0,0,0,0,0,0,0,3.1651,3.1645,3.1582,3.1579,3.1576,3.1526,3.1539,3.1486,3.1501,3.1529,3.1501,3.1501,3.1457,3.1451,3.1438,3.1392,3.1389,3.1408,3.1406,3.1405,3.1404,0,0,0,0,0,0,0,3.1655,3.1647,3.1575,3.1581,3.1578,3.1568,3.156,3.1529,3.1493,3.1526,3.1524,3.1516,3.1455,3.1441,3.1436,3.1388,3.1409,3.1406,3.1404,3.1402,3.1319,3.1319,0,0,0,0,0,0,3.1664,3.1651,3.1578,3.1573,3.1615,3.1566,3.1557,3.1542,3.1493,3.1486,3.1516,3.1515,3.1446,3.1439,3.1433,3.1402,3.1405,3.1402,3.14,3.1319,3.1319,3.1319,0,0,0,0,0,0,3.1666,3.1658,3.158,3.1611,3.1601,3.1564,3.1547,3.1541,3.1526,3.1486,3.1478,3.1509,3.1446,3.1437,3.1406,3.1399,3.1401,3.1398,3.132,3.1319,3.1319,3.1342,0,0,0,0,0,0,3.1669,3.1659,3.1651,3.1612,3.1599,3.1557,3.1546,3.1539,3.1521,3.1519,3.1477,3.1469,3.1446,3.1411,3.1402,3.1395,3.1395,3.132,3.1319,3.1319,3.1342,3.1343,3.1343,0,0,0,0,0,3.1673,3.1659,3.1651,3.1642,3.159,3.1556,3.1549,3.1524,3.1521,3.1512,3.1486,3.1471,3.1402,3.1408,3.1398,3.139,3.132,3.132,3.1319,3.1341,3.1342,3.1343,0,0,0,0,0,0,3.1697,3.1654,3.1644,3.1618,3.1591,3.1551,3.1539,3.1526,3.1498,3.1496,3.1464,3.1455,3.1426,3.1404,3.1412,3.1364,3.1359,3.1357,3.138,3.138,3.1381,3.1386,3.1392,0,0,0,0,0,3.17,3.1678,3.1641,3.1621,3.1608,3.1576,3.1561,3.1544,3.1514,3.1502,3.1473,3.1443,3.1415,3.1396,3.1368,3.1339,3.1328,3.1328,3.1329,3.133,3.1327,3.1309,3.1309,3.1317,3.1317,3.1317,0,0,3.1704,3.1678,3.1666,3.1625,3.1603,3.1579,3.1567,3.1543,3.1524,3.1497,3.1466,3.1444,3.1408,3.1378,3.1363,3.1359,3.1323,3.1329,3.133,3.1327,3.1309,3.1308,3.1307,3.1316,3.1316,3.1316,0,0,3.17,3.1679,3.166,3.1638,3.1605,3.1584,3.1579,3.1541,3.1526,3.1495,3.1474,3.1451,3.1402,3.1378,3.1359,3.1346,3.133,3.1337,3.1341,3.1323,3.1323,3.1322,3.1317,3.1315,3.1335,3.1335,3.1335,0,3.1709,3.1676,3.1652,3.1629,3.1611,3.1588,3.1567,3.1546,3.1505,3.1492,3.1489,3.1427,3.1401,3.1365,3.1362,3.1347,3.1339,3.1341,3.1325,3.1324,3.1323,3.1317,3.1316,3.1336,3.1336,3.1336,3.1336,0,3.1688,3.1665,3.1653,3.1616,3.1597,3.1575,3.1546,3.1529,3.1513,3.1492,3.1459,3.1428,3.1392,3.1382,3.1366,3.1342,3.1341,3.1332,3.1326,3.1324,3.1318,3.1316,3.1338,3.1337,3.1337,3.1337,0,0,3.1698,3.1648,3.1644,3.1627,3.1588,3.1569,3.1545,3.1513,3.1498,3.147,3.1448,3.1408,3.14,3.1378,3.1359,3.1344,3.1335,3.1336,3.1335,3.1337,3.1305,3.1312,3.131,3.1324,3.1324,3.1323,3.1308,0,3.1688,3.1648,3.1626,3.1594,3.1571,3.1549,3.1528,3.1501,3.148,3.1456,3.1431,3.1404,3.1395,3.1382,3.1366,3.1339,3.1328,3.134,3.1302,3.1301,3.1311,3.1307,3.1314,3.1301,3.1306,3.1305,3.1305,0,3.1672,3.1647,3.1614,3.1578,3.1567,3.1549,3.1517,3.1495,3.1464,3.1449,3.1426,3.1406,3.1379,3.1376,3.1336,3.1345,3.1327,3.1312,3.131,3.1305,3.1303,3.1301,3.1297,3.1295,3.1301,3.1302,3.1302,0,3.1682,3.1639,3.1613,3.1599,3.1557,3.1545,3.1526,3.1495,3.1476,3.1447,3.1435,3.1402,3.1384,3.1358,3.133,3.1331,3.1293,3.1287,3.1278,3.1279,3.1271,3.1271,3.1263,3.1261,3.1261,3.1261,3.1261,0,3.1673,3.1654,3.1617,3.1601,3.1578,3.1551,3.1528,3.1507,3.1479,3.1457,3.1435,3.1414,3.1379,3.1353,3.133,3.13,3.1292,3.1278,3.1272,3.128,3.1282,3.1268,3.1268,3.126,3.1261,3.1261,3.1261,0,3.168,3.1655,3.1626,3.1589,3.1579,3.1563,3.153,3.1512,3.1491,3.1463,3.1455,3.142,3.1388,3.1358,3.1315,3.13,3.1269,3.1262,3.1281,3.1277,3.127,3.1271,3.1251,3.1247,3.1249,3.1249,3.1249,0,3.1676,3.1661,3.1623,3.1608,3.159,3.1566,3.1548,3.152,3.1501,3.1464,3.1451,3.1418,3.1391,3.1341,3.131,3.1277,3.1268,3.1263,3.1262,3.127,3.1267,3.1268,3.1265,3.1264,3.1264,3.1264,3.1264,0,3.1672,3.166,3.1636,3.1608,3.1587,3.1563,3.1537,3.1525,3.1492,3.1472,3.1441,3.142,3.1377,3.1344,3.1308,3.1286,3.1268,3.1265,3.1261,3.1268,3.1279,3.1272,3.1282,3.1265,3.1265,3.1265,3.1265,3.1265,3.1673,3.1658,3.1629,3.1602,3.1581,3.1557,3.1539,3.1516,3.149,3.1455,3.1439,3.1408,3.1375,3.1324,3.1302,3.1275,3.1271,3.1266,3.1264,3.1263,3.1264,3.1285,3.1269,3.1269,3.1268,3.1268,3.1268,0,3.1667,3.1647,3.1623,3.1589,3.1568,3.1557,3.1527,3.151,3.1483,3.1455,3.1429,3.1392,3.136,3.1327,3.1293,3.1278,3.1269,3.1269,3.127,3.1265,3.127,3.1277,3.1277,3.1277,3.1277,3.1277,3.1277,3.1277,3.1661,3.1635,3.162,3.1583,3.1562,3.1533,3.1517,3.1495,3.1472,3.1434,3.1408,3.1387,3.1356,3.132,3.1289,3.128,3.1268,3.127,3.1259,3.1265,3.1264,3.1264,3.127,3.1268,3.1268,3.1255,3.1255,3.1255]}]]